KD5NDU-15 Weather Reports


time (UTC)temp
C
wind
direction
speed
KPH
gust
KPH
rain 1hr
cm
rain 24hr
cm
rain mn
cm
humidity
%
barometer
mb
20260831225639 34 154 4.8 8.0 0.00 0.00 0.00 58 1016.8
20260831225139 35 193 3.2 9.7 0.00 0.00 0.00 57 1016.7
20260831224639 35 180 1.6 6.4 0.00 0.00 0.00 58 1016.7
20260831224139 35 151 1.6 6.4 0.00 0.00 0.00 57 1016.7
20260831223639 35 88 1.6 9.7 0.00 0.00 0.00 58 1016.7
20260831223139 35 203 1.6 6.4 0.00 0.00 0.00 58 1016.7
20260831222639 35 165 3.2 6.4 0.00 0.00 0.00 58 1016.8
20260831222139 35 88 1.6 8.0 0.00 0.00 0.00 57 1016.7
20260831221639 35 183 3.2 4.8 0.00 0.00 0.00 57 1016.7
20260831221139 35 181 4.8 6.4 0.00 0.00 0.00 56 1016.8
20260831220639 35 75 3.2 8.0 0.00 0.00 0.00 57 1016.9
20260831220139 35 86 1.6 9.7 0.00 0.00 0.00 57 1016.9
20260831215639 35 159 1.6 4.8 0.00 0.00 0.00 59 1016.9
20260831215139 34 106 3.2 6.4 0.00 0.00 0.00 57 1017.0
20260831214639 35 128 3.2 8.0 0.00 0.00 0.00 58 1017.0
20260831214139 35 147 3.2 9.7 0.00 0.00 0.00 57 1017.0
20260831213639 35 224 3.2 8.0 0.00 0.00 0.00 56 1017.0
20260831213139 35 183 3.2 8.0 0.00 0.00 0.00 55 1017.0
20260831212639 35 211 3.2 6.4 0.00 0.00 0.00 54 1017.0
20260831212139 35 223 3.2 6.4 0.00 0.00 0.00 55 1017.0
20260831211640 35 251 4.8 8.0 0.00 0.00 0.00 54 1017.1
20260831211139 36 211 4.8 11.3 0.00 0.00 0.00 53 1017.3
20260831210640 36 202 4.8 11.3 0.00 0.00 0.00 53 1017.4
20260831210140 36 251 3.2 9.7 0.00 0.00 0.00 54 1017.4
20260831205640 35 206 1.6 8.0 0.00 0.00 0.00 54 1017.3
20260831205140 35 231 3.2 4.8 0.00 0.00 0.00 55 1017.4
20260831204640 35 127 3.2 4.8 0.00 0.00 0.00 55 1017.4
20260831204140 34 201 3.2 6.4 0.00 0.00 0.00 57 1017.4
20260831203640 34 191 3.2 9.7 0.00 0.00 0.00 58 1017.4
20260831203140 33 193 3.2 8.0 0.00 0.00 0.00 58 1017.3
20260831202640 33 232 1.6 6.4 0.00 0.00 0.00 58 1017.4
20260831202140 33 210 1.6 4.8 0.00 0.00 0.00 60 1017.5
20260831201640 33 209 1.6 3.2 0.00 0.00 0.00 60 1017.6
20260831201140 33 208 1.6 3.2 0.00 0.00 0.00 62 1017.6
20260831200640 33 207 1.6 4.8 0.00 0.00 0.00 60 1017.6
20260831200140 34 61 0.0 1.6 0.00 0.00 0.00 60 1017.8
20260831195640 35 61 1.6 3.2 0.00 0.00 0.00 58 1017.9
20260831195140 35 61 0.0 1.6 0.00 0.00 0.00 63 1018.0
20260831194640 35 61 0.0 3.2 0.00 0.00 0.00 62 1018.0
20260831194140 34 61 0.0 1.6 0.00 0.00 0.00 62 1018.1
20260831193640 33 62 0.0 3.2 0.00 0.00 0.00 61 1018.1
20260831193140 33 60 0.0 3.2 0.00 0.00 0.00 61 1018.2
20260831192640 33 60 1.6 3.2 0.00 0.00 0.00 63 1018.1
20260831192140 33 61 1.6 3.2 0.00 0.00 0.00 63 1018.2
20260831191640 33 81 1.6 4.8 0.00 0.00 0.00 63 1018.2
20260831191140 33 153 1.6 6.4 0.00 0.00 0.00 63 1018.3
20260831190640 33 154 3.2 4.8 0.00 0.00 0.00 63 1018.3
20260831190140 33 181 1.6 6.4 0.00 0.00 0.00 63 1018.3
20260831185640 33 190 1.6 4.8 0.00 0.00 0.00 64 1018.4
20260831185140 33 167 1.6 6.4 0.00 0.00 0.00 64 1018.3
20260831184640 33 149 3.2 4.8 0.00 0.00 0.00 64 1018.5
20260831184140 33 162 1.6 6.4 0.00 0.00 0.00 63 1018.4
20260831183640 33 210 0.0 4.8 0.00 0.00 0.00 63 1018.6
20260831183140 33 190 0.0 3.2 0.00 0.00 0.00 64 1018.7
20260831182640 33 193 1.6 3.2 0.00 0.00 0.00 63 1018.7
20260831182140 33 193 1.6 3.2 0.00 0.00 0.00 64 1018.7
20260831181640 33 193 3.2 4.8 0.00 0.00 0.00 63 1018.8
20260831181140 33 207 3.2 8.0 0.00 0.00 0.00 63 1018.9
20260831180640 33 181 4.8 6.4 0.00 0.00 0.00 62 1019.0
20260831180140 33 182 6.4 11.3 0.00 0.00 0.00 62 1019.1
20260831175640 33 176 4.8 12.9 0.00 0.00 0.00 62 1019.1
20260831175140 33 192 3.2 11.3 0.00 0.00 0.00 63 1019.2
20260831174640 33 293 4.8 8.0 0.00 0.00 0.00 64 1019.4
20260831174140 33 262 6.4 9.7 0.00 0.00 0.00 66 1019.3
20260831173640 33 250 6.4 17.7 0.00 0.00 0.00 63 1019.4
20260831173140 34 236 4.8 12.9 0.00 0.00 0.00 62 1019.6
20260831172640 33 280 4.8 9.7 0.00 0.00 0.00 65 1019.5
20260831172140 33 194 3.2 9.7 0.00 0.00 0.00 64 1019.5
20260831171640 32 176 3.2 6.4 0.00 0.00 0.00 66 1019.6
20260831171140 32 152 3.2 6.4 0.00 0.00 0.00 66 1019.6
20260831170640 32 212 1.6 8.0 0.00 0.00 0.00 66 1019.8
20260831170140 32 245 1.6 3.2 0.00 0.00 0.00 67 1019.9
20260831165640 32 246 1.6 4.8 0.00 0.00 0.00 66 1020.0
20260831165140 32 248 0.0 4.8 0.00 0.00 0.00 67 1020.0
20260831164640 32 249 0.0 3.2 0.00 0.00 0.00 68 1020.0
20260831164140 32 249 1.6 3.2 0.00 0.00 0.00 70 1020.0
20260831163640 32 205 1.6 3.2 0.00 0.00 0.00 69 1020.1
20260831163140 32 206 3.2 6.4 0.00 0.00 0.00 70 1020.1
20260831162640 32 174 4.8 8.0 0.00 0.00 0.00 69 1020.1
20260831162140 32 234 4.8 9.7 0.00 0.00 0.00 69 1020.2
20260831161640 32 256 4.8 12.9 0.00 0.00 0.00 68 1020.1
20260831161140 32 186 6.4 11.3 0.00 0.00 0.00 67 1020.1
20260831160640 32 245 6.4 14.5 0.00 0.00 0.00 67 1020.2
20260831160140 32 168 6.4 14.5 0.00 0.00 0.00 66 1020.2
20260831155640 32 214 6.4 12.9 0.00 0.00 0.00 67 1020.2
20260831155140 32 226 4.8 12.9 0.00 0.00 0.00 69 1020.3
20260831154640 32 226 4.8 8.0 0.00 0.00 0.00 70 1020.2
20260831154140 32 251 4.8 9.7 0.00 0.00 0.00 69 1020.3
20260831153640 32 252 4.8 12.9 0.00 0.00 0.00 69 1020.3
20260831153140 32 226 3.2 8.0 0.00 0.00 0.00 68 1020.1
20260831152640 32 229 1.6 6.4 0.00 0.00 0.00 69 1020.2
20260831152140 32 262 3.2 8.0 0.00 0.00 0.00 70 1020.1
20260831151640 31 254 4.8 11.3 0.00 0.00 0.00 72 1020.1
20260831151140 31 214 3.2 9.7 0.00 0.00 0.00 71 1020.0
20260831150640 31 247 3.2 8.0 0.00 0.00 0.00 72 1020.1
20260831150140 31 202 3.2 6.4 0.00 0.00 0.00 74 1020.0
20260831145640 31 172 4.8 11.3 0.00 0.00 0.00 74 1020.1
20260831145140 31 200 3.2 9.7 0.00 0.00 0.00 73 1020.2
20260831144640 31 233 1.6 9.7 0.00 0.00 0.00 73 1020.0
20260831144140 31 278 1.6 3.2 0.00 0.00 0.00 75 1020.0
20260831143640 31 278 1.6 4.8 0.00 0.00 0.00 75 1019.8
20260831143140 30 288 1.6 3.2 0.00 0.00 0.00 77 1019.8
20260831142640 30 285 1.6 3.2 0.00 0.00 0.00 78 1019.8
20260831142140 30 259 1.6 4.8 0.00 0.00 0.00 78 1019.9
20260831141640 29 242 1.6 6.4 0.00 0.00 0.00 79 1019.9
20260831141140 29 219 3.2 6.4 0.00 0.00 0.00 81 1019.8
20260831140640 28 205 3.2 6.4 0.00 0.00 0.00 81 1019.9
20260831140140 28 207 1.6 6.4 0.00 0.00 0.00 81 1019.9
20260831135640 28 211 3.2 4.8 0.00 0.00 0.00 82 1019.8
20260831135140 28 208 3.2 6.4 0.00 0.00 0.00 81 1019.8
20260831134640 27 193 3.2 4.8 0.00 0.00 0.00 83 1019.9
20260831134140 27 199 3.2 4.8 0.00 0.00 0.00 83 1019.8
20260831133640 27 174 3.2 6.4 0.00 0.00 0.00 84 1019.7
20260831133140 27 188 3.2 6.4 0.00 0.00 0.00 85 1019.7
20260831132640 26 184 1.6 4.8 0.00 0.00 0.00 85 1019.8
20260831132140 26 184 1.6 3.2 0.00 0.00 0.00 86 1019.8
20260831131640 26 179 1.6 4.8 0.00 0.00 0.00 87 1019.6
20260831131140 25 148 0.0 4.8 0.00 0.00 0.00 88 1019.7
20260831130640 25 141 0.0 1.6 0.00 0.00 0.00 90 1019.6
20260831130140 25 141 0.0 3.2 0.00 0.00 0.00 90 1019.5
20260831125640 24 141 0.0 3.2 0.00 0.00 0.00 91 1019.5
20260831125140 23 141 1.6 3.2 0.00 0.00 0.00 92 1019.4
20260831124640 23 140 1.6 4.8 0.00 0.00 0.00 92 1019.3
20260831124140 23 130 1.6 3.2 0.00 0.00 0.00 93 1019.2
20260831123640 23 115 1.6 4.8 0.00 0.00 0.00 93 1019.1
20260831123140 23 154 1.6 8.0 0.00 0.00 0.00 93 1019.1
20260831122640 22 152 1.6 4.8 0.00 0.00 0.00 93 1018.9
20260831122140 22 181 3.2 6.4 0.00 0.00 0.00 94 1018.9
20260831121640 22 135 1.6 6.4 0.00 0.00 0.00 94 1018.8
20260831121140 22 150 1.6 4.8 0.00 0.00 0.00 94 1018.8
20260831120640 21 150 1.6 4.8 0.00 0.00 0.00 94 1018.8
20260831120140 22 149 0.0 3.2 0.00 0.00 0.00 94 1018.7
20260831115640 22 147 0.0 3.2 0.00 0.00 0.00 94 1018.7
20260831115140 22 148 0.0 3.2 0.00 0.00 0.00 94 1018.6
20260831114640 22 148 0.0 3.2 0.00 0.00 0.00 94 1018.6
20260831114140 22 153 0.0 3.2 0.00 0.00 0.00 94 1018.6
20260831113640 22 148 0.0 0.0 0.00 0.00 0.00 94 1018.6
20260831113140 22 148 0.0 0.0 0.00 0.00 0.00 94 1018.4
20260831112640 22 148 0.0 0.0 0.00 0.00 0.00 94 1018.4
20260831112140 21 148 0.0 0.0 0.00 0.00 0.00 94 1018.4
20260831111640 21 148 0.0 0.0 0.00 0.00 0.00 94 1018.3
20260831111140 21 148 0.0 0.0 0.00 0.00 0.00 94 1018.3
20260831110640 22 148 0.0 0.0 0.00 0.00 0.00 94 1018.3
20260831110140 22 148 0.0 0.0 0.00 0.00 0.00 94 1018.3
20260831105640 22 148 0.0 0.0 0.00 0.00 0.00 93 1018.2
20260831105140 22 148 0.0 0.0 0.00 0.00 0.00 94 1018.2
20260831104640 22 148 0.0 3.2 0.00 0.00 0.00 94 1018.3
20260831104140 22 148 1.6 4.8 0.00 0.00 0.00 94 1018.2
20260831103640 22 151 0.0 1.6 0.00 0.00 0.00 93 1018.2
20260831103141 22 138 0.0 0.0 0.00 0.00 0.00 93 1018.1
20260831102640 22 138 0.0 1.6 0.00 0.00 0.00 93 1018.1
20260831102140 22 138 0.0 3.2 0.00 0.00 0.00 94 1018.1
20260831101640 22 174 0.0 0.0 0.00 0.00 0.00 94 1018.2
20260831101140 22 174 0.0 3.2 0.00 0.00 0.00 94 1018.0
20260831100640 22 167 0.0 3.2 0.00 0.00 0.00 94 1018.0
20260831100140 22 167 0.0 3.2 0.00 0.00 0.00 93 1018.0
20260831095640 22 167 0.0 0.0 0.00 0.00 0.00 93 1017.9
20260831095140 22 167 0.0 1.6 0.00 0.00 0.00 94 1017.9
20260831094640 22 167 0.0 1.6 0.00 0.00 0.00 93 1017.8
20260831094140 22 167 0.0 0.0 0.00 0.00 0.00 93 1017.8
20260831093835 22 167 0.0 0.0 0.00 0.00 0.00 93 1017.8
20260831093640 22 167 0.0 0.0 0.00 0.00 0.00 93 1017.8
20260831093140 22 167 0.0 0.0 0.00 0.00 0.00 92 1017.6
20260831092640 23 167 0.0 0.0 0.00 0.00 0.00 92 1017.6
20260831092140 23 167 0.0 1.6 0.00 0.00 0.00 91 1017.6
20260831091640 23 167 1.6 4.8 0.00 0.00 0.00 92 1017.4
20260831091140 23 188 1.6 4.8 0.00 0.00 0.00 92 1017.3
20260831090640 23 179 0.0 4.8 0.00 0.00 0.00 92 1017.4
20260831090140 23 153 0.0 3.2 0.00 0.00 0.00 93 1017.4
20260831085640 23 154 0.0 0.0 0.00 0.00 0.00 93 1017.3
20260831085140 23 155 0.0 0.0 0.00 0.00 0.00 93 1017.3
20260831084640 22 158 0.0 0.0 0.00 0.00 0.00 93 1017.3
20260831084140 22 144 0.0 0.0 0.00 0.00 0.00 94 1017.3
20260831083641 22 142 0.0 0.0 0.00 0.00 0.00 94 1017.3
20260831083140 22 124 0.0 0.0 0.00 0.00 0.00 94 1017.3
20260831082640 22 122 0.0 0.0 0.00 0.00 0.00 93 1017.3
20260831082141 22 122 0.0 0.0 0.00 0.00 0.00 93 1017.2
20260831081641 22 122 0.0 0.0 0.00 0.00 0.00 93 1017.2
20260831081141 22 121 0.0 0.0 0.00 0.00 0.00 93 1017.2
20260831080641 22 125 0.0 0.0 0.00 0.00 0.00 92 1017.2
20260831080141 22 125 0.0 0.0 0.00 0.00 0.00 92 1017.2
20260831075640 22 126 0.0 0.0 0.00 0.00 0.00 91 1017.1
20260831075141 23 126 0.0 0.0 0.00 0.00 0.00 91 1017.3
20260831074641 23 127 0.0 0.0 0.00 0.00 0.00 90 1017.3
20260831074141 23 124 1.6 0.0 0.00 0.00 0.00 91 1017.4
20260831073641 23 125 1.6 4.8 0.00 0.00 0.00 91 1017.3
20260831073141 23 112 1.6 6.4 0.00 0.00 0.00 92 1017.4
20260831072641 23 198 0.0 1.6 0.00 0.00 0.00 92 1017.4
20260831072141 23 198 0.0 1.6 0.00 0.00 0.00 92 1017.4
20260831071641 23 198 0.0 0.0 0.00 0.00 0.00 91 1017.4
20260831071141 23 198 0.0 0.0 0.00 0.00 0.00 91 1017.5
20260831070641 23 198 0.0 0.0 0.00 0.00 0.00 91 1017.5
20260831070141 23 198 0.0 0.0 0.00 0.00 0.00 91 1017.6
20260831065641 23 198 0.0 0.0 0.00 0.00 0.00 91 1017.6
20260831065141 23 198 0.0 1.6 0.00 0.00 0.00 91 1017.7
20260831064641 23 198 0.0 3.2 0.00 0.00 0.00 91 1017.8
20260831064141 23 200 0.0 1.6 0.00 0.00 0.00 91 1017.7
20260831063641 23 200 0.0 1.6 0.00 0.00 0.00 90 1017.8
20260831063141 23 200 0.0 0.0 0.00 0.00 0.00 90 1017.7
20260831062641 23 200 0.0 0.0 0.00 0.00 0.00 89 1017.8
20260831062141 23 200 0.0 0.0 0.00 0.00 0.00 89 1017.8
20260831061641 24 200 0.0 1.6 0.00 0.00 0.00 88 1017.7
20260831061141 24 200 0.0 1.6 0.00 0.00 0.00 87 1017.7
20260831060641 24 200 0.0 1.6 0.00 0.00 0.00 87 1017.7
20260831060141 25 200 1.6 3.2 0.00 0.00 0.00 87 1017.7
20260831055641 25 200 1.6 3.2 0.00 0.00 0.00 87 1017.7
20260831055141 25 197 1.6 4.8 0.00 0.00 0.00 87 1017.7
20260831054641 25 198 1.6 3.2 0.00 0.00 0.00 87 1017.6
20260831054141 25 197 0.0 4.8 0.00 0.00 0.00 87 1017.8
20260831053641 25 200 0.0 0.0 0.00 0.00 0.00 87 1017.9
20260831053141 25 200 0.0 0.0 0.00 0.00 0.00 86 1017.8
20260831052641 25 200 0.0 0.0 0.00 0.00 0.00 86 1017.9
20260831052141 25 200 0.0 0.0 0.00 0.00 0.00 86 1017.8
20260831051641 25 200 0.0 0.0 0.00 0.00 0.00 86 1017.8
20260831051141 25 182 0.0 0.0 0.00 0.00 0.00 85 1017.8
20260831050641 25 190 0.0 0.0 0.00 0.00 0.00 85 1017.8
20260831050141 25 190 0.0 0.0 0.00 0.00 0.00 85 1017.9
20260831045641 25 190 0.0 0.0 0.00 0.00 0.00 85 1017.9
20260831045141 25 191 0.0 0.0 0.00 0.00 0.00 85 1017.8
20260831044641 25 191 1.6 4.8 0.00 0.00 0.00 84 1017.8
20260831044141 25 214 1.6 4.8 0.00 0.00 0.00 84 1017.9
20260831043641 25 210 1.6 4.8 0.00 0.00 0.00 84 1017.9
20260831043141 25 212 1.6 4.8 0.00 0.00 0.00 84 1017.9
20260831042641 25 185 1.6 3.2 0.00 0.00 0.00 84 1017.9
20260831042141 26 184 1.6 3.2 0.00 0.00 0.00 84 1018.0
20260831041641 26 183 0.0 4.8 0.00 0.00 0.00 84 1018.1
20260831041141 26 191 0.0 3.2 0.00 0.00 0.00 84 1018.1
20260831040641 26 191 0.0 1.6 0.00 0.00 0.00 83 1018.0
20260831040141 26 192 1.6 3.2 0.00 0.00 0.00 82 1018.1
20260831035641 26 153 1.6 4.8 0.00 0.00 0.00 82 1017.9
20260831035141 26 146 1.6 3.2 0.00 0.00 0.00 82 1017.9
20260831034641 26 160 1.6 3.2 0.00 0.00 0.00 82 1018.0
20260831034141 26 162 1.6 4.8 0.00 0.00 0.00 81 1017.9
20260831033641 26 168 1.6 4.8 0.00 0.00 0.00 81 1017.9
20260831033141 26 170 1.6 4.8 0.00 0.00 0.00 81 1017.9
20260831032641 26 167 0.0 4.8 0.00 0.00 0.00 81 1017.8
20260831032141 26 162 1.6 3.2 0.00 0.00 0.00 80 1017.7
20260831031641 26 166 1.6 4.8 0.00 0.00 0.00 80 1017.7
20260831031141 27 155 0.0 3.2 0.00 0.00 0.00 80 1017.6
20260831030641 27 145 1.6 3.2 0.00 0.00 0.00 79 1017.7
20260831030141 27 135 1.6 4.8 0.00 0.00 0.00 79 1017.6
20260831025641 27 195 1.6 6.4 0.00 0.00 0.00 79 1017.6
20260831025141 27 178 1.6 6.4 0.00 0.00 0.00 79 1017.4
20260831024641 27 191 0.0 3.2 0.00 0.00 0.00 78 1017.5
20260831024141 27 191 0.0 1.6 0.00 0.00 0.00 78 1017.6
20260831023641 27 189 0.0 0.0 0.00 0.00 0.00 77 1017.5
20260831023141 27 189 0.0 0.0 0.00 0.00 0.00 77 1017.4
20260831022641 28 189 0.0 1.6 0.00 0.00 0.00 76 1017.3
20260831022141 28 189 1.6 3.2 0.00 0.00 0.00 76 1017.3
20260831021641 28 190 1.6 3.2 0.00 0.00 0.00 75 1017.3
20260831021141 28 183 0.0 4.8 0.00 0.00 0.00 75 1017.2
20260831020641 28 166 0.0 1.6 0.00 0.00 0.00 74 1017.1
20260831020141 28 166 0.0 3.2 0.00 0.00 0.00 73 1017.0
20260831015641 28 166 1.6 3.2 0.00 0.00 0.00 73 1016.9
20260831015141 28 164 1.6 4.8 0.00 0.00 0.00 73 1016.9
20260831014641 28 165 1.6 4.8 0.00 0.00 0.00 73 1016.9
20260831014141 28 172 1.6 3.2 0.00 0.00 0.00 73 1016.9
20260831013641 28 158 1.6 4.8 0.00 0.00 0.00 73 1016.9
20260831013141 29 165 1.6 3.2 0.00 0.00 0.00 72 1016.8
20260831012641 29 170 1.6 1.6 0.00 0.00 0.00 72 1016.8
20260831012141 29 167 1.6 4.8 0.00 0.00 0.00 72 1016.8
20260831011641 29 197 0.0 3.2 0.00 0.00 0.00 72 1016.7
20260831011141 29 203 0.0 1.6 0.00 0.00 0.00 71 1016.8
20260831010641 30 203 1.6 3.2 0.00 0.00 0.00 71 1016.8
20260831010141 30 205 1.6 3.2 0.00 0.00 0.00 70 1016.8
20260831005641 30 189 1.6 6.4 0.00 0.00 0.00 70 1016.8
20260831005141 30 181 1.6 3.2 0.00 0.00 0.00 70 1016.7
20260831004641 30 207 3.2 3.2 0.00 0.00 0.00 69 1016.7
20260831004141 30 174 3.2 4.8 0.00 0.00 0.00 69 1016.6
20260831003641 30 208 3.2 8.0 0.00 0.00 0.00 68 1016.7
20260831003141 30 207 3.2 6.4 0.00 0.00 0.00 68 1016.6
20260831002641 31 197 4.8 8.0 0.00 0.00 0.00 67 1016.5
20260831002141 31 219 4.8 9.7 0.00 0.00 0.00 67 1016.5
20260831001641 31 212 4.8 9.7 0.00 0.00 0.00 66 1016.6
20260831001141 31 176 4.8 11.3 0.00 0.00 0.00 66 1016.6
20260831000641 31 179 3.2 11.3 0.00 0.00 0.00 65 1016.8
20260831000141 31 215 4.8 8.0 0.00 0.00 0.00 65 1016.8
20260830235641 31 142 4.8 12.9 0.00 0.00 0.00 65 1016.7
20260830235141 32 217 4.8 8.0 0.00 0.00 0.00 64 1016.7
20260830234641 32 146 6.4 9.7 0.00 0.00 0.00 63 1016.8
20260830234141 32 176 6.4 12.9 0.00 0.00 0.00 63 1016.8
20260830233641 32 159 6.4 14.5 0.00 0.00 0.00 62 1016.8
20260830233141 32 219 6.4 12.9 0.00 0.00 0.00 63 1016.7
20260830232641 32 203 4.8 14.5 0.00 0.00 0.00 62 1016.7
20260830232141 32 198 4.8 9.7 0.00 0.00 0.00 62 1016.6
20260830231641 32 214 6.4 11.3 0.00 0.00 0.00 62 1016.6
20260830231141 32 207 8.0 11.3 0.00 0.00 0.00 61 1016.5
20260830230641 32 212 6.4 9.7 0.00 0.00 0.00 61 1016.6
20260830230141 33 184 6.4 11.3 0.00 0.00 0.00 61 1016.5